Location: B
(0.0000°N, 0.0000°E)
Time: 05:03:31
(UTC+01:00)

Daily predictions for brighter satellites

Satellite Brightness Start Highest point End
(mag) Time Altitude Azimuth Time Altitude Azimuth Time Altitude Azimuth
CENTAUR R/B 4.4 03:22:30 34° SE 03:22:30 34° SE 03:26:39 10° SSE
COSMOS 2455 3.8 04:11:30 43° SE 04:11:30 43° SE 04:15:42 10° SSE
Milstar 3 4.0 04:13:29 31° SSW 04:13:29 31° SSW 04:18:25 10° SSE
ARIANE 5 DEB (SYLDA) 4.4 04:30:42 46° ENE 04:30:42 46° ENE 04:36:38 10° E
Cosmos 2123 Rocket 4.0 04:32:17 10° S 04:38:27 78° E 04:40:06 51° NNE
SEDSat Delta rocket 3.7 04:42:36 74° NE 04:42:36 74° NE 04:48:58 10° ESE
Cosmos 1844 Rocket 3.8 04:44:58 32° SSW 04:44:58 32° SSW 04:48:10 10° S
IRS-1C Rocket 4.4 04:47:41 10° NNE 04:52:52 63° ESE 04:58:03 10° S
Cosmos 1707 Rocket 3.7 04:56:21 64° SSE 04:56:21 64° SSE 05:00:03 10° S
USA 234 3.9 04:52:46 10° SE 04:59:01 48° NE 05:02:56 23° N
Lacrosse 4 Rocket 3.6 04:55:47 10° SSE 04:59:38 28° ESE 05:03:25 10° NE
BLOCK DM-SL R/B 2.5 05:00:41 64° E 05:00:41 64° E 05:07:28 10° E
Ariane H10+ 1.8 04:59:49 62° W 05:00:44 85° S 05:04:00 10° E
GPS 2-04 Rocket1 4.0 05:03:26 32° NNE 05:03:26 32° NNE 05:05:48 10° NE
ARIANE 5 R/B 3.1 05:01:18 48° SSW 05:01:51 53° S 05:05:44 10° E
CENTAUR R/B 4.5 05:09:43 18° WSW 05:09:43 18° WSW 05:14:17 10° SSW
ISS -1.0 05:12:04 10° NNE 05:13:19 12° NE 05:14:40 10° ENE
CZ-4B R/B 3.2 05:11:13 10° N 05:16:37 55° WNW 05:22:01 10° SSW
Centaur Rocket 4.5 05:09:50 25° W 05:17:11 56° NNW 05:21:44 10° NE
Cosmos 2016 Rocket 3.8 05:16:53 10° N 05:22:57 83° W 05:29:06 10° S
CZ-4B R/B 3.5 05:22:10 47° NNW 05:23:01 64° W 05:26:40 10° SSW
Cosmos 2278 Rocket 2.1 05:20:32 30° NNW 05:23:19 67° WSW 05:28:55 10° S
Cosmos 2061 Rocket 4.0 05:20:32 18° NNW 05:25:21 60° W 05:31:36 10° S
Mugunghwa Rocket 4.2 05:21:33 31° WNW 05:25:27 90° NNE 05:32:18 10° ESE
Cosmos 1933 3.2 05:29:10 25° NNW 05:31:25 69° W 05:35:28 10° S
Okean O Rocket 3.7 05:35:58 12° SW 05:35:58 12° SW 05:36:24 10° SW
Cosmos 1943 3.4 05:31:15 10° SSW 05:36:40 45° WNW 05:42:04 10° N
Meteor 1-31 Rocket 3.3 05:35:58 31° NW 05:36:56 36° W 05:40:34 10° SW
Cosmos 1437 2.5 05:35:28 27° NNW 05:37:01 76° W 05:40:13 10° S
Cosmos 1340 3.1 05:36:36 34° WNW 05:37:29 40° W 05:41:04 10° SSW
Palapa 6 Rocket 4.1 05:35:49 24° WNW 05:40:31 70° SSW 05:46:41 10° ESE
Feng Yun 1-1 Rocket 4.4 05:34:41 10° NNE 05:40:33 85° ESE 05:46:19 10° S
SWIFT 4.2 05:40:45 15° NNW 05:40:45 15° NNW 05:43:07 10° NNE
Meteor 2-10 Rocket 4.4 05:41:52 18° NW 05:45:17 34° W 05:50:21 10° SSW
Cosmos 1862 Rocket 3.5 05:41:39 10° N 05:46:04 83° W 05:50:28 10° S
Ariane H10+ 2.2 05:48:03 23° W 05:49:41 54° N 05:51:49 10° ENE
Cosmos 2242 Rocket 3.7 05:45:55 10° NNW 05:50:08 49° W 05:54:24 10° SSW
NATO 3D Rocket 4.5 05:44:45 18° W 05:50:28 52° SSW 05:55:59 10° SE
USA 215 3.2 05:44:18 10° NNE 05:50:45 68° NW 05:57:15 10° SW
NOSS 2-1 (E) 4.2 05:47:27 10° SSW 05:52:03 56° ESE 05:55:49 10° NE
Cosmos 1864 Rocket 4.4 05:46:15 10° NNW 05:52:21 64° W 05:58:25 10° S
Cosmos 1503 Rocket 4.3 05:52:10 10° N 05:57:19 71° ENE 06:02:32 10° SSE
NOAA 6 4.0 05:52:40 10° N 05:57:43 65° WNW 06:02:48 10° SSW
PAYLOAD A 4.2 05:55:04 10° NNE 06:00:29 86° ESE 06:05:55 10° S
Cosmos 1825 3.2 06:00:56 10° SW 06:04:06 25° W 06:07:15 10° NNW
Haruka 4.2 06:06:33 12° WNW 06:09:24 25° NNW 06:15:39 10° NE
Cosmos 2233 Rocket 3.9 06:04:13 10° N 06:10:19 78° W 06:16:31 10° S
Cosmos 1862 3.2 06:07:00 10° S 06:10:56 66° W 06:14:51 10° N
Meteosat 1 Rocket2 3.3 06:10:10 10° W 06:13:35 38° NNW 06:17:34 10° NE
ASTRO E2 4.5 06:13:24 10° NNW 06:16:40 24° NNE 06:19:57 10° E
ARIANE 5 R/B 3.0 06:13:58 10° W 06:20:28 64° S 06:23:47 10° ESE
FUSE 3.9 06:16:09 10° WSW 06:21:30 75° NNW 06:26:50 10° ENE
Cosmos 332 Rocket 3.8 06:17:26 10° SSW 06:22:15 89° ESE 06:27:01 10° NNE
CZ-3 R/B 4.4 06:14:53 10° W 06:27:11 19° SW 06:32:55 10° S
